Home > Weather > Chennai > Past weeks

Flag for India Weather for the Past 2 Weeks in Chennai, Tamil Nadu, India

Now
99 °F

Passing clouds.


Feels Like: 115 °F
Forecast: 85 / 96 °F
Wind: 9 mph from Southeast

Location: Madras / Minambakkam

Current Time: May 3, 2016 at 2:41:59 PM

Latest Report: May 3, 2016 at 1:30 PM


Visibility: 6 mi

Pressure: 29.71 "Hg

Humidity: 50%

Dew Point: 77 °F

Location of ChennaiLocation

Historic Weather in Chennai — Graph

°F

Chennai Temperature Yesterday

Maximum temperature yesterday: 100 °F (at 12:00 PM)
Minimum temperature yesterday: 82 °F (at 3:00 AM)
Average temperature yesterday: 89 °F

High & Low Weather Summary for the Past Weeks

 TemperatureHumidityPressure
High106 °F (Apr 22, 2:00 PM)94% (Apr 28, 6:00 AM)29.86 "Hg (Apr 28, 6:00 AM)
Low81 °F (Apr 20, 5:00 AM)30% (Apr 22, 2:30 PM)29.56 "Hg (Apr 23, 4:00 PM)
Average90 °F70%29.72 "Hg
* Reported Apr 18 1:30 PM — May 3 1:30 PM, Chennai, Weather by CustomWeather, © 2016

Note: Actual official high and low records may vary slightly from our data, if they occured in-between our weather recording intervals... More about our weather records

Advertising

Chennai Weather History for the Previous 24 Hours

Scroll right to see more
 ConditionsComfort  
Time TempWeatherWind HumidityBarometerVisibility
1:30 PM
Tue, May 3
99 °FPassing clouds.9 mph50%29.71 "Hg6 mi
1:00 PM100 °FPassing clouds.9 mph47%29.71 "Hg6 mi
12:30 PM100 °FPassing clouds.9 mph42%29.74 "Hg6 mi
12:00 PM99 °FPassing clouds.9 mph47%29.74 "Hg5 mi
11:30 AM100 °FScattered clouds.9 mph45%29.77 "Hg5 mi
11:00 AM95 °FScattered clouds.12 mph50%29.77 "Hg5 mi
10:30 AM95 °FScattered clouds.12 mph53%29.80 "Hg5 mi
10:00 AM95 °FScattered clouds.12 mph53%29.80 "Hg5 mi
9:30 AM91 °FScattered clouds.12 mph63%29.80 "Hg5 mi
8:30 AM90 °FScattered clouds.9 mph67%29.80 "Hg4 mi
8:00 AM88 °FScattered clouds.9 mph75%29.77 "Hg4 mi
7:00 AM86 °FScattered clouds.6 mph84%29.74 "Hg4 mi
6:30 AM84 °FPassing clouds.7 mph89%29.74 "Hg4 mi
6:00 AM84 °FPassing clouds.8 mph84%29.71 "Hg4 mi
5:30 AM84 °FPassing clouds.7 mph84%29.71 "Hg4 mi
5:00 AM84 °FPassing clouds.7 mph84%29.71 "Hg4 mi
4:30 AM84 °FPassing clouds.6 mph84%29.71 "Hg4 mi
4:00 AM84 °FPassing clouds.6 mph89%29.68 "Hg4 mi
3:30 AM84 °FPassing clouds.6 mph89%29.68 "Hg4 mi
3:00 AM84 °FPassing clouds.6 mph89%29.68 "Hg4 mi
2:30 AM86 °FPassing clouds.7 mph84%29.71 "Hg4 mi
2:00 AM86 °FPassing clouds.7 mph84%29.71 "Hg4 mi
1:30 AM86 °FPassing clouds.5 mph84%29.71 "Hg4 mi
1:00 AM86 °FPassing clouds.6 mph84%29.71 "Hg4 mi
12:30 AM86 °FPassing clouds.7 mph84%29.71 "Hg4 mi
12:00 AM86 °FPassing clouds.10 mph84%29.71 "Hg4 mi
11:30 PM
Mon, May 2
86 °FPassing clouds.10 mph84%29.74 "Hg4 mi
11:00 PM86 °FPassing clouds.10 mph84%29.74 "Hg4 mi
10:30 PM86 °FPassing clouds.10 mph84%29.74 "Hg4 mi
10:00 PM86 °FPassing clouds.10 mph84%29.74 "Hg4 mi
9:30 PM86 °FClear.9 mph84%29.74 "Hg4 mi
9:00 PM88 °FClear.10 mph79%29.71 "Hg4 mi
8:30 PM88 °FClear.8 mph79%29.71 "Hg4 mi
8:00 PM88 °FClear.12 mph75%29.71 "Hg4 mi
7:30 PM90 °FPassing clouds.14 mph71%29.71 "Hg4 mi
7:00 PM90 °FPassing clouds.10 mph67%29.68 "Hg4 mi
6:30 PM90 °FPassing clouds.12 mph63%29.68 "Hg4 mi
6:00 PM91 °FPassing clouds.14 mph59%29.68 "Hg4 mi
5:30 PM93 °FPassing clouds.12 mph53%29.65 "Hg4 mi
5:00 PM93 °FPassing clouds.12 mph53%29.65 "Hg4 mi
4:30 PM95 °FPassing clouds.12 mph47%29.65 "Hg4 mi
4:00 PM97 °FPassing clouds.12 mph47%29.65 "Hg5 mi
3:30 PM97 °FClear.12 mph47%29.65 "Hg5 mi
3:00 PM97 °FClear.12 mph47%29.68 "Hg5 mi
2:30 PM97 °FClear.12 mph50%29.68 "Hg5 mi
2:00 PM97 °FClear.16 mph50%29.68 "Hg5 mi
Weather by CustomWeather, © 2016

See weather overviewHow to use our weather pages